Home   Weather   Minden   Past weeks

Flag for Germany Past Weather in Minden, North Rhine-Westphalia, Germany — Yesterday and Last 2 Weeks

Now
48 °F

Partly sunny.


Feels Like: 43 °F
Forecast: 43 / 47 °F
Wind: 14 mph from Southwest

Location: Bueckeburg

Current Time: Dec 8, 2016 at 9:00:57 am

Latest Report: Dec 8, 2016 at 8:20 am


Visibility: N/A

Pressure: 30.33 "Hg

Humidity: 58%

Dew Point: 34 °F

Location of MindenLocation

Past Weather in Minden — Graph

°F

Minden Temperature Yesterday

Maximum temperature yesterday: 48 °F (at 9:20 pm)
Minimum temperature yesterday: 28 °F (at 12:20 am)
Average temperature yesterday: 37 °F

High & Low Weather Summary for the Past Weeks

 TemperatureHumidityPressure
High52 °F (Nov 23, 2:20 pm)100% (Nov 23, 7:20 am)30.60 "Hg (Nov 23, 7:20 am)
Low21 °F (Nov 29, 3:20 am)52% (Dec 5, 1:20 pm)30.01 "Hg (Nov 27, 12:20 am)
Average35 °F87%30.30 "Hg
* Reported Nov 23 7:20 am — Dec 8 7:20 am, Minden, Weather by CustomWeather, © 2016

Note: Actual official high and low records may vary slightly from our data, if they occured in-between our weather recording intervals... More about our weather records

Advertising

Minden Weather History for the Previous 24 Hours

Scroll right to see more
 ConditionsComfort  
Time TempWeatherWind HumidityBarometerVisibility
7:20 am
Thu, Dec 8
48 °FPassing clouds.13 mph62%30.33 "HgN/A
6:20 am48 °FPassing clouds.13 mph58%30.33 "HgN/A
5:20 am48 °FCool.16 mph58%30.33 "HgN/A
4:20 am48 °FCool.15 mph62%30.33 "HgN/A
3:20 am48 °FCool.17 mph62%30.33 "HgN/A
2:20 am48 °FCool.13 mph62%30.36 "HgN/A
1:20 am48 °FCool.15 mph62%30.33 "HgN/A
12:20 am48 °FCool.18 mph66%30.33 "HgN/A
12:00 am50 °FPassing clouds.15 mph62%30.36 "HgN/A
11:20 pm
Wed, Dec 7
48 °FPassing clouds.14 mph66%30.36 "HgN/A
10:20 pm48 °FPassing clouds.14 mph66%30.36 "HgN/A
9:20 pm48 °FPassing clouds.12 mph66%30.36 "HgN/A
8:20 pm43 °FOvercast.10 mph76%30.36 "HgN/A
7:20 pm43 °FPassing clouds.15 mph76%30.36 "HgN/A
6:20 pm45 °FPassing clouds.8 mph76%30.36 "HgN/A
5:20 pm43 °FPassing clouds.14 mph76%30.36 "HgN/A
4:20 pm41 °FPartly cloudy.9 mph76%30.36 "HgN/A
3:20 pm41 °FPartly sunny.8 mph76%30.36 "HgN/A
2:20 pm39 °FPartly sunny.12 mph81%30.36 "HgN/A
1:20 pm39 °FPartly sunny.10 mph75%30.39 "HgN/A
12:20 pm39 °FPartly sunny.16 mph75%30.39 "HgN/A
11:20 am36 °FPartly sunny.10 mph81%30.42 "HgN/A
10:20 am36 °FPartly sunny.14 mph81%30.42 "HgN/A
9:20 am34 °FBroken clouds.12 mph87%30.42 "HgN/A
Weather by CustomWeather, © 2016

See weather overviewHow to use our weather pages